Cloud_Cover
44 36 48 64 76 80 88 80 76 64 64 56 48 44 48 36 32 20 8 20 24 32 32 32 24 12 8 8 12 24 44 44 48 64 56 56 36 20 12 20 20 20 12 12 8 0 0 0 0 0 0 0 0 0 0 0 0 0 0 0 0 0 0 0 0 0 0 0 0 0 0 0 0 0 0 0 0 0 0 0 0 0 0 0 0 0
56 56 68 68 76 88 92 80 76 68 64 56 44 36 36 32 24 20 8 8 0 8 12 12 12 8 8 8 8 8 8 8 24 48 64 48 48 48 36 36 36 32 32 24 12 0 0 0 0 0 0 0 0 0 0 0 0 0 0 0 0 0 0 0 0 0 0 0 0 0 0 0 0 0 0 0 0 0 0 0 0 0 0 0 0 0
44 48 68 76 80 80 88 76 68 68 64 64 48 36 32 24 20 12 8 8 8 12 12 8 8 0 8 8 8 8 8 8 8 8 24 12 20 32 32 24 20 20 20 8 0 0 0 0 0 0 0 0 0 0 0 0 0 0 0 0 0 0 0 0 0 0 0 0 0 0 0 0 0 0 0 0 0 0 0 0 0 0 0 0 0 0
36 56 88 80 80 80 80 80 76 64 56 56 44 36 32 24 20 8 8 12 12 12 8 8 8 8 8 8 8 8 8 8 8 8 8 8 8 8 8 8 8 8 8 0 0 0 0 0 0 0 0 0 0 0 0 0 0 0 0 0 0 0 0 0 0 0 0 0 0 0 0 0 0 0 0 0 0 0 0 0 0 0 0 0 0 0
44 56 80 88 88 80 80 92 80 68 64 48 44 44 32 24 24 20 12 0 0 8 0 8 12 12 12 12 8 8 8 8 8 8 8 8 8 8 8 0 0 0 0 0 0 0 0 0 0 0 0 0 0 0 0 0 0 0 0 0 0 0 0 0 0 0 0 0 0 0 0 0 0 0 0 0 0 0 0 0 0 0 0 0 0 0
64 56 48 64 76 88 92 88 88 80 76 68 64 48 36 32 24 24 20 12 8 8 12 12 20 24 32 20 12 12 8 8 8 8 8 8 8 8 8 0 0 0 0 0 0 0 0 0 0 0 0 0 0 0 0 0 0 0 0 0 0 0 0 0 0 0 0 0 0 0 0 0 0 0 0 0 0 0 0 0 0 0 0 0 0 0
68 56 36 44 56 68 80 76 80 92 92 80 76 68 56 44 36 32 24 24 24 32 32 12 20 32 48 32 20 12 12 8 8 8 8 8 8 8 8 0 0 0 0 0 0 0 0 0 0 0 0 0 0 0 0 0 0 0 0 0 0 0 0 0 0 0 0 0 0 0 0 0 0 0 0 0 0 0 0 0 0 0 0 0 0 0
68 64 56 44 48 48 56 48 68 88 92 88 80 76 64 48 44 36 36 48 68 64 32 48 56 64 68 44 24 12 8 8 8 8 8 0 0 0 0 0 0 0 0 0 0 0 0 0 0 0 0 0 0 0 0 0 0 0 0 0 0 0 0 0 0 0 0 0 0 0 0 0 0 0 0 0 0 0 0 0 0 0 0 0 0 0
80 80 80 68 56 48 32 36 48 76 80 80 76 64 64 44 36 36 44 76 80 68 36 64 80 88 88 56 36 24 8 8 0 8 8 0 0 0 0 0 0 0 0 0 0 0 0 8 8 0 0 0 0 0 0 0 0 0 0 0 0 0 0 0 0 0 0 0 0 8 0 20 36 48 48 20 0 0 0 0 0 0 0 0 0 0
68 76 80 80 68 56 36 36 44 56 64 68 76 80 80 56 48 48 64 88 88 76 68 64 76 92 80 68 56 36 12 44 32 0 0 0 8 0 0 0 0 0 0 0 0 0 8 8 0 0 0 0 0 0 0 0 0 0 0 0 0 0 0 0 0 0 0 0 0 8 12 36 44 48 68 20 0 0 0 0 0 0 0 0 0 0
64 68 76 80 76 68 48 64 64 56 56 56 68 88 80 68 68 76 68 76 76 68 68 68 80 80 68 48 44 32 20 36 48 44 0 0 0 0 0 12 8 0 0 12 12 0 0 0 0 0 0 0 0 0 0 0 0 0 0 0 0 0 0 0 0 0 0 0 0 0 8 12 12 12 20 0 0 0 0 0 0 0 0 0 0 0
68 76 80 80 76 76 68 68 64 44 20 36 56 68 80 76 76 76 76 80 88 88 88 64 64 64 48 36 24 20 8 24 64 88 64 64 64 64 48 20 8 8 12 12 12 20 8 0 0 0 0 0 0 0 0 0 0 0 0 0 0 0 0 0 0 0 0 0 0 0 0 0 0 0 0 0 0 0 0 0 0 0 0 0 0 0
80 80 80 76 76 80 80 88 88 76 48 48 44 36 56 64 64 68 80 92 92 92 92 56 44 44 64 36 20 8 8 48 76 92 92 92 92 76 20 8 8 8 8 0 8 8 8 8 8 0 0 0 0 0 0 0 0 0 0 0 0 0 0 0 0 0 0 0 0 0 0 0 0 0 0 0 0 0 0 0 0 0 0 0 0 0
80 76 64 64 68 80 88 88 88 92 80 80 76 64 64 44 36 56 92 92 92 92 92 76 68 68 80 76 68 48 8 32 64 92 92 92 92 76 8 8 0 0 0 0 0 0 0 0 8 0 0 0 0 0 0 0 0 0 0 0 0 0 0 0 0 0 0 0 0 0 0 0 0 0 0 0 0 0 0 0 0 0 0 0 0 0
68 48 44 48 64 80 88 80 80 80 88 92 92 88 80 68 48 36 48 68 88 92 92 92 92 92 92 88 88 68 24 32 48 76 92 92 92 92 80 24 8 0 0 0 0 0 0 0 0 0 0 0 0 0 0 0 0 0 0 0 0 0 0 0 0 0 0 0 0 0 0 0 0 0 0 0 0 0 0 0 0 0 0 0 0 0
56 44 32 64 80 88 88 88 92 92 92 92 88 76 76 68 48 32 32 44 48 56 44 48 76 92 88 80 80 76 36 76 88 92 92 92 92 92 92 88 48 12 0 0 8 8 0 8 8 8 8 8 0 0 0 0 0 0 0 0 0 0 0 0 0 0 0 0 0 0 0 0 0 0 0 0 0 0 0 0 0 0 0 0 0 0
80 68 36 68 88 88 88 92 92 92 92 92 92 80 68 48 36 24 20 20 48 64 12 36 68 92 92 92 92 88 76 88 92 92 80 80 88 92 92 92 80 48 0 0 0 0 0 0 0 0 8 0 0 0 0 0 0 0 0 0 0 0 0 0 0 0 0 0 0 0 0 0 0 0 0 0 0 0 0 0 0 0 0 0 0 0
92 92 88 88 88 92 92 92 92 92 92 92 92 92 88 68 56 44 24 24 56 76 56 24 56 92 92 88 76 64 48 32 44 64 64 88 80 80 92 92 92 68 0 0 0 0 0 0 8 20 12 0 0 0 0 0 0 0 0 0 0 0 0 0 0 0 0 0 0 0 0 0 0 0 0 0 0 0 0 0 0 0 0 0 0 0
92 92 92 92 92 92 92 92 92 92 92 92 92 92 92 92 92 88 76 64 48 56 92 64 64 80 92 92 88 80 76 88 88 80 92 92 92 92 92 92 92 92 92 48 24 8 0 32 36 32 20 8 0 0 0 0 0 0 0 0 0 0 0 0 0 0 0 0 0 0 0 0 0 0 0 0 0 0 0 0 0 0 0 0 0 0
92 92 92 92 92 92 92 92 92 92 92 92 92 92 92 92 92 92 92 92 88 88 88 92 92 92 92 92 92 88 80 92 92 92 92 92 92 92 92 92 92 92 92 80 44 12 8 32 48 48 48 44 32 20 0 0 0 0 0 0 0 0 0 0 0 0 0 0 0 0 0 0 0 0 0 0 0 0 0 0 0 0 0 0 0 0
92 92 92 92 92 92 92 92 92 92 92 92 92 92 92 92 92 92 92 92 92 92 92 92 92 92 92 92 92 92 92 92 92 92 92 92 92 92 92 92 92 92 92 92 56 20 12 48 64 56 48 48 36 24 8 12 12 0 0 0 0 0 0 0 0 8 8 0 0 0 0 0 0 0 0 0 0 0 0 0 0 0 0 0 0 0
92 92 92 92 92 92 92 92 92 92 92 92 92 92 92 92 92 92 92 92 92 92 92 92 92 92 80 92 92 92 92 92 92 92 92 92 92 92 92 92 92 92 92 92 92 80 24 68 76 68 64 68 56 48 36 32 20 8 0 0 0 0 0 0 0 8 8 0 0 0 0 0 0 0 0 0 0 0 0 0 0 0 0 0 0 0
80 76 76 88 92 92 88 92 92 92 92 92 92 92 92 92 92 92 92 92 92 92 92 92 92 92 92 92 92 92 92 92 92 92 92 92 92 92 92 92 92 92 92 92 92 88 68 76 76 76 68 64 64 64 56 48 48 36 24 20 8 0 0 0 0 8 0 0 0 0 0 0 0 0 0 0 0 0 0 0 0 0 0 0 0 0
88 80 80 88 92 88 80 88 92 92 92 92 92 92 92 92 92 92 92 92 92 92 92 92 92 92 92 92 92 92 92 92 92 92 92 92 92 92 92 92 92 92 92 92 92 88 76 88 88 76 48 56 64 64 56 64 56 48 36 24 12 0 0 0 0 0 0 0 0 0 0 0 0 0 0 0 0 0 0 0 0 0 0 0 0 0
92 92 92 92 88 88 92 92 92 92 92 92 92 92 92 92 92 92 92 92 92 92 92 92 92 92 92 92 92 92 92 92 92 92 92 88 92 92 92 92 92 92 92 92 92 92 92 88 80 68 48 48 56 64 64 68 64 56 44 32 20 8 0 0 0 0 0 0 0 0 0 0 0 0 0 0 0 0 0 0 0 0 0 0 0 0
92 92 92 92 92 92 92 92 92 92 92 92 92 92 92 92 92 92 92 92 92 92 92 92 92 92 92 92 92 92 92 92 92 92 92 92 92 92 92 92 92 92 92 92 92 92 92 64 48 44 36 32 44 64 64 68 64 56 56 36 24 12 0 0 0 0 0 0 0 0 8 0 0 0 0 0 0 0 0 0 0 0 0 0 0 0
92 92 92 92 92 92 92 92 92 92 92 92 92 92 92 92 92 92 92 92 92 92 92 92 92 92 92 92 92 92 92 92 92 92 92 92 92 92 92 92 92 92 92 92 92 92 80 64 48 36 24 56 64 64 64 64 56 48 44 24 12 0 0 0 0 0 0 0 0 0 8 8 0 0 0 0 0 0 0 0 0 0 0 0 0 0
92 92 92 92 92 92 92 92 92 92 92 92 92 92 92 92 92 92 92 92 92 92 92 92 92 92 92 92 92 92 92 92 92 92 92 92 92 92 92 92 92 92 92 92 92 92 92 88 76 64 56 68 68 68 68 64 56 44 36 24 12 8 0 0 8 8 8 12 12 12 12 8 0 0 0 0 0 0 0 0 0 0 0 0 0 0
92 92 92 92 92 92 92 92 92 92 92 92 92 92 92 92 92 92 92 92 92 92 92 92 92 92 92 92 92 92 92 92 92 92 92 92 92 92 92 92 92 92 92 92 92 92 92 92 92 92 88 76 68 64 68 56 48 48 44 32 24 20 8 12 12 20 24 20 12 12 8 8 0 0 0 0 0 0 0 0 0 0 0 0 0 0
92 92 92 92 92 92 92 92 92 92 92 92 92 92 92 92 92 92 92 92 92 92 92 92 92 92 92 92 92 92 92 92 92 92 92 92 92 92 92 92 92 92 92 92 92 92 80 76 80 92 92 76 68 64 64 48 44 36 36 32 32 24 20 20 20 20 20 12 12 12 8 0 0 0 0 0 0 0 0 0 0 0 0 0 0 0
92 88 92 88 88 88 88 92 92 92 92 92 92 92 92 92 92 92 92 92 92 92 92 92 92 92 92 92 92 92 92 92 92 92 92 92 92 92 92 92 92 92 92 92 92 88 80 68 76 80 80 76 68 68 76 56 44 44 36 36 36 36 32 12 8 8 12 20 12 12 8 0 0 0 0 0 0 0 0 0 0 0 0 0 0 0
88 88 80 80 80 88 88 88 92 92 92 92 92 92 92 92 92 92 92 92 92 92 92 92 92 92 92 92 92 92 92 92 92 92 92 92 92 92 92 92 92 92 92 92 92 92 92 92 80 76 76 68 64 64 64 48 44 44 44 48 44 36 24 12 8 8 12 20 12 12 8 0 0 0 0 0 0 0 0 0 0 0 0 0 0 0
80 88 76 76 80 80 88 88 88 88 88 88 88 88 92 92 92 92 92 92 92 92 92 92 92 92 92 92 92 92 92 92 92 92 92 92 92 92 92 92 92 92 92 92 92 92 88 88 80 68 68 64 56 44 36 36 44 48 56 48 44 36 24 20 12 12 12 12 12 8 0 0 0 0 0 0 0 0 0 0 0 0 0 0 0 0
76 80 88 88 88 88 88 88 88 88 88 88 88 88 88 88 88 88 92 92 92 92 92 92 92 92 92 92 92 92 92 92 92 92 92 92 92 92 92 92 92 92 92 92 92 92 88 92 88 88 80 68 56 44 36 32 44 48 56 48 44 36 24 20 12 12 12 12 8 0 0 0 0 0 0 0 0 0 0 0 0 0 0 0 0 0
76 68 68 80 88 88 88 88 88 88 88 88 88 92 92 92 92 92 88 92 88 88 88 92 92 92 92 92 92 92 80 88 92 92 92 92 92 92 92 92 92 92 92 92 92 92 92 92 92 92 92 80 64 48 44 36 36 44 48 36 32 24 24 12 12 12 12 8 0 0 0 0 0 0 0 0 0 0 0 0 0 0 8 0 8 8
76 68 56 76 80 80 88 88 88 88 88 88 88 88 92 88 92 92 88 92 92 92 92 88 88 88 92 92 92 88 76 76 88 92 92 88 88 88 92 92 92 92 92 92 92 92 92 92 92 92 92 92 80 64 48 44 44 44 44 36 32 24 24 12 8 8 8 0 0 0 0 0 0 0 0 0 0 0 0 0 0 12 24 12 24 32
76 64 56 64 64 68 80 88 88 88 88 88 88 88 88 88 88 88 88 92 92 92 92 92 92 88 92 92 92 92 88 88 92 92 92 88 80 80 80 80 88 92 92 88 88 92 92 92 92 92 92 92 80 64 48 44 44 48 48 36 32 24 20 8 8 8 8 0 0 0 0 0 0 0 0 0 0 8 24 20 20 24 32 32 36 44
68 64 56 56 64 68 76 80 88 88 80 80 80 80 80 80 80 80 76 80 80 80 92 92 92 92 88 88 88 88 88 92 92 92 92 92 92 88 76 76 80 88 88 80 80 80 92 92 92 92 92 88 76 64 56 48 48 48 48 36 32 20 12 8 8 8 0 0 0 0 0 0 0 0 0 0 0 20 48 44 36 36 44 44 48 48
68 64 64 56 56 48 56 76 76 68 64 68 76 80 80 80 80 76 76 76 76 76 80 88 92 92 80 80 80 76 68 76 88 92 92 92 92 92 80 88 88 88 88 88 80 76 76 92 80 64 64 76 76 68 64 56 56 48 48 36 32 24 12 8 0 0 0 0 0 0 0 0 0 0 0 32 48 48 44 44 44 44 48 48 56 48
56 56 56 44 44 36 44 56 56 48 48 56 64 68 76 80 88 88 80 76 76 76 76 76 76 76 68 76 76 68 64 64 64 68 68 68 76 80 92 80 80 88 88 88 88 88 88 76 76 76 68 76 68 64 56 56 44 36 36 36 32 24 8 0 0 0 0 0 0 0 0 8 12 24 36 48 56 48 32 36 36 36 36 44 56 64
48 48 48 36 36 32 32 36 36 44 56 64 76 80 80 76 80 80 80 76 76 76 68 68 68 64 64 68 76 68 64 64 64 68 76 76 68 68 68 64 68 80 80 80 80 80 80 80 80 76 68 64 64 56 48 44 36 32 36 44 32 12 0 0 0 0 0 0 0 0 0 44 68 68 68 56 44 36 32 32 32 36 44 44 56 64
48 44 44 36 36 36 32 32 44 56 64 68 76 76 76 64 64 64 68 76 68 64 64 64 64 64 56 56 64 64 56 56 56 64 68 64 64 64 56 48 48 56 76 80 76 76 76 76 76 68 68 68 68 64 56 48 36 36 36 44 32 12 8 0 0 0 0 0 20 44 48 68 68 64 56 44 44 44 36 36 32 36 44 44 44 48
48 44 36 36 36 44 48 56 64 64 68 68 68 68 64 56 56 48 44 56 56 56 48 48 56 56 64 64 56 44 44 44 44 44 48 44 48 48 48 48 44 36 36 44 44 44 56 64 64 68 68 68 68 64 64 48 36 32 32 24 24 32 24 12 24 44 36 36 56 76 76 56 48 44 44 32 24 32 44 36 36 36 36 44 44 48
56 48 44 44 44 44 48 64 68 68 64 68 76 68 64 64 56 56 48 48 64 68 64 64 56 64 76 68 56 48 48 48 44 44 44 36 36 44 44 48 48 48 48 56 56 56 48 64 64 56 64 64 64 56 48 44 32 24 36 36 36 36 36 36 36 44 48 48 56 64 64 56 44 36 32 32 32 32 32 32 32 36 36 44 48 48
56 48 44 48 48 56 68 68 64 64 68 68 68 68 68 64 64 64 64 56 64 68 68 64 68 68 76 64 56 56 56 48 48 44 44 36 36 36 44 48 56 56 64 68 64 56 56 64 56 48 48 56 64 64 48 44 36 32 24 44 44 44 36 36 44 48 56 56 64 56 48 48 44 36 32 32 32 32 32 32 36 36 36 36 44 44
56 56 56 56 64 68 76 64 64 64 68 68 68 68 68 64 64 64 64 64 56 56 64 64 68 76 64 56 56 56 56 48 48 44 44 44 36 36 44 48 48 56 68 68 64 56 48 48 44 36 44 56 48 44 44 44 36 36 32 44 44 44 48 44 48 56 56 64 56 48 44 44 44 44 44 44 44 36 32 36 36 36 36 36 44 44
56 56 56 56 64 68 64 64 64 68 68 68 68 68 64 64 64 56 56 56 48 48 56 56 56 64 68 64 64 64 64 56 48 44 44 36 36 36 36 36 36 44 56 56 56 44 44 36 44 48 48 64 48 44 36 36 44 44 44 44 48 48 36 36 44 48 56 56 56 56 44 44 44 48 44 44 44 44 36 36 36 36 36 36 36 36
56 48 48 48 48 56 64 64 68 68 68 68 64 64 56 56 56 48 44 44 36 36 48 56 64 64 64 68 68 64 64 56 48 44 36 36 36 36 36 36 36 36 36 44 44 36 36 36 44 48 48 48 48 44 44 36 36 44 48 48 48 44 36 44 48 56 56 56 56 56 48 48 48 48 44 48 44 44 36 36 36 36 36 36 36 36
56 56 48 48 56 64 64 68 68 68 64 56 56 48 48 48 48 44 36 32 32 36 56 64 76 76 68 76 76 68 64 56 48 44 36 44 48 44 44 44 44 36 32 32 32 32 36 36 36 44 44 44 48 48 44 44 44 48 56 56 48 48 48 48 56 56 56 56 56 64 64 56 48 48 48 48 44 36 36 32 32 32 32 36 36 36
68 64 64 68 68 76 76 76 76 76 64 48 44 44 44 48 48 44 36 36 36 44 64 68 76 76 80 80 80 76 76 68 64 64 48 64 64 64 56 48 44 44 44 36 32 32 32 36 36 36 36 36 56 68 56 56 56 64 64 56 56 56 48 56 48 48 56 56 64 64 64 56 48 48 48 44 44 36 32 32 32 32 32 36 36 44
76 76 76 80 80 80 76 76 76 76 64 56 44 44 44 44 48 48 48 48 44 36 32 64 76 76 80 80 80 76 76 68 64 64 68 64 64 64 64 56 48 44 44 44 36 32 32 36 36 36 36 44 64 76 76 64 64 64 68 64 56 56 56 56 48 44 48 48 56 56 64 56 56 56 56 48 48 48 36 36 36 36 36 44 44 44